TimeMST,TemperatureF,Dew PointF,Humidity,Sea Level PressureIn,VisibilityMPH,Wind Direction,Wind SpeedMPH,Gust SpeedMPH,PrecipitationIn,Events,Conditions,WindDirDegrees,DateUTC
12:53 AM,36.0,28.0,73,29.57,10.0,Calm,Calm,-,N/A,,Overcast,0,2013-02-21 07:53:00
1:53 AM,35.1,27.0,72,29.58,10.0,North,4.6,-,N/A,,Overcast,350,2013-02-21 08:53:00
2:53 AM,35.1,27.0,72,29.58,10.0,Calm,Calm,-,N/A,,Overcast,0,2013-02-21 09:53:00
3:53 AM,33.1,28.0,82,29.61,10.0,Calm,Calm,-,N/A,,Overcast,0,2013-02-21 10:53:00
4:53 AM,34.0,27.0,75,29.63,10.0,NNE,9.2,-,N/A,,Overcast,30,2013-02-21 11:53:00
5:53 AM,34.0,27.0,75,29.66,10.0,NNE,3.5,-,N/A,,Overcast,20,2013-02-21 12:53:00
6:53 AM,33.1,27.0,78,29.70,10.0,Calm,Calm,-,N/A,,Overcast,0,2013-02-21 13:53:00
7:53 AM,33.1,28.0,82,29.74,10.0,Calm,Calm,-,N/A,,Overcast,0,2013-02-21 14:53:00
8:53 AM,34.0,30.0,85,29.76,10.0,SSW,4.6,-,0.00,,Overcast,210,2013-02-21 15:53:00
9:53 AM,37.9,26.1,62,29.76,10.0,West,3.5,-,N/A,,Mostly Cloudy,260,2013-02-21 16:53:00
10:53 AM,37.9,21.0,51,29.78,10.0,Calm,Calm,-,N/A,,Mostly Cloudy,0,2013-02-21 17:53:00
11:53 AM,39.9,23.0,51,29.77,10.0,WNW,5.8,-,N/A,,Overcast,300,2013-02-21 18:53:00
12:53 PM,41.0,21.9,47,29.75,10.0,Variable,4.6,-,N/A,,Mostly Cloudy,0,2013-02-21 19:53:00
1:53 PM,41.0,21.9,47,29.75,10.0,East,10.4,-,N/A,,Overcast,80,2013-02-21 20:53:00
2:53 PM,39.9,21.9,49,29.75,10.0,NE,8.1,-,N/A,,Overcast,40,2013-02-21 21:53:00
3:53 PM,39.9,23.0,51,29.76,10.0,NE,9.2,-,N/A,,Mostly Cloudy,40,2013-02-21 22:53:00
4:53 PM,39.0,26.1,60,29.78,9.0,NNW,8.1,-,0.00,,Unknown,330,2013-02-21 23:53:00
5:53 PM,35.1,28.0,76,29.80,10.0,NNE,12.7,-,0.00,,Overcast,30,2013-02-22 00:53:00
6:53 PM,37.0,23.0,57,29.82,10.0,North,3.5,-,N/A,,Overcast,350,2013-02-22 01:53:00
7:53 PM,35.6,26.6,70,29.83,10.0,Calm,Calm,-,N/A,,Overcast,0,2013-02-22 02:53:00
8:53 PM,34.0,26.1,73,29.87,10.0,Calm,Calm,-,N/A,,Overcast,0,2013-02-22 03:53:00
9:53 PM,32.0,23.0,69,29.88,10.0,NNE,4.6,-,N/A,,Overcast,30,2013-02-22 04:53:00
10:53 PM,33.1,21.9,64,29.87,10.0,NE,10.4,-,N/A,,Mostly Cloudy,40,2013-02-22 05:53:00
11:53 PM,33.1,21.9,64,29.88,10.0,North,5.8,-,N/A,,Overcast,10,2013-02-22 06:53:00